Погода Рудня

Погода Рудня : погода сейчас, прогноз погоды и архив. Всё, что Вы хотите узнать о погоде Рудня!

Поиск расширенной информации на нашем сайте:

Полезная информация: Доставка суши и пиццы в донецке domaed.com.

Другие новости

Новости СМИ2

Главная страница сайта

Новости сайта

02.10.2013

Напоминаем, что на нашем новом сайте вы можете получить высокодетализированные прогнозы погоды по пунктам России, СНГ и мира (включающие важные для авиации метеовеличины, такие как направление и скорость ветра, видимость, явления погоды, количество и форма облачности, нижняя и верхняя граница облачности), а также ознакомиться с разнообразными материалами по авиационной метеорологии и подборкой полезных ссылок на эту тему.

Сайт Метеоцентр.Азия посвящён разработке технологий оптимизации авиаметеорологического обслуживания, включая проектирование и перспективное создание нескольких автоматизированных авиаметеорологических систем:
- система выпуска высокодетальных прогностических карт явлений погоды для нижнего воздушного пространства по России и ближнему зарубежью;
- система верификации прогнозов TAF (выпускаемых синоптиками официальных АМСГ РФ и ближнего зарубежья) и AUTOTAF (выпускаемых сайтом Метеоцентр.Азия) - выявление ошибок, онлайн-сопоставление с фактической погодой METAR, автоматическое внесение коррективов в прогнозы при резком отклонении фактической погоды от прогноза, подсчёт оправдываемости прогнозов по элементам и в целом;
- система обработки, анализа и отображения авиаметеорологической информации для применения провайдерами метеорологической информации.

Рекомендуем: холодильная витрина

Погода Рудня - сегодня

Время (UTC), дата Ветер
(°,м/с) 
Видим.   Явления Облачность Т
(°С)
Тd
(°С)
f(%) Тe
(°С)
Pmin
(гПа)
dP
(гПа)
Po
(мм)
O2
(г/м3)
Тmin Tmax R s Состояние
почвы
06 25.05.17 170 (Ю) 10 км    4/0 средняя 
[Ac trans]
+20 +10.4 54 +22  1018.5  0.2  754  281           
09 25.05.17 220 (ЮЗ) 10 км    8/4 600 м кучево-дожд., средняя, верхняя 
[Cb cap|Ac trans|Ci fib]
+24.4 +8.7 37 +24  1017.8  -0.5  753  277           
12 25.05.17 200 (Ю) 2{10}  10 км    10/4 600 м кучево-дожд., средняя, верхняя 
[Cb cap|Ac As|Ci fib]
+23.3 +7.7 37 +23  1016.7  -1.1  752  278           
15 25.05.17 200 (Ю) 10 км    10/3 600 м кучево-дожд., средняя, верхняя 
[Cb cap|Ac As|Ci fib]
+22.4 +8.9 42 +22  1016.3  -0.4  752  279    +25       
18 25.05.17 300 (СЗ) 10 км    10/4 600 м кучево-дожд., средняя, верхняя 
[Cb cap|Ac As|Ci fib]
+16.8 +10.3 65 +19  1017.4  0.8  753  284           
21 25.05.17 310 (СЗ) 10 км    ясно 
+12.8 +9.8 82 +15  1017.2  -0.4  752  288           
00 26.05.17 тихо ()   10 км    3/0 средняя 
[Ac trans]
+10.1 +8.9 92 +10  1017  -0.4  752  291           
03 26.05.17 тихо ()   10 км    9/8 600 м средняя 
[Sc|Ac As]
+10.6 +9.5 93 +11  1017  0.1  752  290  +9.7        мокрая 
06 26.05.17 360 (С) 10 км    3/3 600 м 
[Sc]
+19.9 +10.1 53 +22  1015.6  -0.9  752  280           
09 26.05.17 250 (З) 10 км    5/5 600 м 
[Cu Sc]
+24.6 +8.8 37 +25  1014.3  -1.1  751  276           
12 26.05.17 160 (Ю) 10 км    8/8 600 м кучево-дожд. 
[Cb cap]
+22.6 +9.6 44 +23  1012.7  -1.7  749  277           
18 26.05.17 тихо ()   10 км  {гроза, ливн. осадки}  9/9 600 м кучево-дожд. 
[Cb cap]
+15 +13.7 92 +22  1012.8  -0.6  749  283           
21 26.05.17 200 (Ю) 10 км    3/3 600 м 
[Sc diur, vesp]
+13.5 +12.5 94 +20  1011.8  -1.1  749  285           
00 27.05.17 тихо ()   10 км    5/3 600 м средняя 
[Sc diur, vesp|Ac trans]
+11.1 +10.3 95 +13  1011.8  -0.2  748  288           
03 27.05.17 070 (В) 4000 м  дымка  3/3 600 м 
[Sc diur, vesp]
+12.2 +11.5 95 +16  1011.6  -0.2  748  286  +10.7    0.3    мокрая 
06 27.05.17 260 (З) 10 км    9/6 600 м средняя 
[Sc|Ac trans]
+19.1 +12.5 66 +26  1010.8  -0.4  748  279           
09 27.05.17 250 (З) 10 км  гроза без осадков  6/6 600 м кучево-дожд. 
[Cb cap]
+23 +9.5 42 +24  1009.6  -1  747  276           
21 27.05.17 340 (С) 10 км    ясно 
+12.9 +10.5 85 +15  1012.1  0.8  749  286           
00 28.05.17 310 (СЗ) 10 км    8/0 верхняя 
[Ci fib]
+10.1 +8.7 91 +11  1013.3  749  290           
06 28.05.17 010 (С) 10 км    3/0 средняя 
[Ac trans]
+16 +5.2 49 +17  1013.9  0.1  750  285           
09 28.05.17 310 (СЗ) 10 км    8/8 600 м кучево-дожд. 
[Cb cap]
+18.4 +2.6 35 +19  1013.2  -0.6  750  283           
12 28.05.17 280 (З) 10 км    8/8 600 м кучево-дожд. 
[Cb cap]
+19.8 +2.3 31 +21  1011.4  -1.7  748  281           
15 28.05.17 310 (СЗ) 4{11}  10 км  слаб. ливневой дождь  10/10 600 м кучево-дожд. 
[Cb cap]
+12.1 +9.3 83 +12  1012.4  0.6  749  287    +21.2  0.5     
21 28.05.17 320 (СЗ) 2{12}  10 км    ясно 
+5.1 +2.3 82 +5  1018.9  753  298           
00 29.05.17 300 (СЗ) 10 км    ясно 
+3.4 +1.2 85 +4  1020.8  1.7  755  300           
Время (UTC), дата Ветер
(°,м/с) 
Видим.   Явления Облачность Т
(°С)
Тd
(°С)
f(%) Тe
(°С)
Pmin
(гПа)
dP
(гПа)
Po
(мм)
O2
(г/м3)
Тmin Tmax R s Состояние
почвы

Для получения пояснительной информации подведите курсор к названию столбца.

ПОГОДА Рудня - архив

Всё, что Вы хотите узнать о погоде Рудня - удобно и подробно!

Выберите нужную дату (начиная с 1 января 2015* года) и нажмите кнопку "Найти".
Будут отображены архивные сводки погоды по пункту Рудня, начиная с указанной даты.


Отображать данные в формате CSV (для использования в таблицах Excel)


Внимание! Наш архив погоды предназначен исключительно для личного некоммерческого использования в познавательных целях. Если Вам необходимы официальные справки о состоянии погоды (для производственных, юридических, коммерческих и т.п. целей), обращайтесь в органы Росгидромета.

*Примечание: данная дата относится к архиву по метеостанциям СССР (Россия, СНГ, Балтия).
Архив по метеостанциям Зарубежной Европы и Азии (кроме Китая) хранится 10 дней, по другим регионам земного шара (Китай, Африка, Америка, Австралия, Океания) - 1 день.

Рудня - район местоположения метеостанции


Название, широта, долгота, высота метеостанции:
Рудня 50.8°ш. 44.6°д. 114 м над ур. моря [Российская Федерация]

Дополнительная информация

В oтличие oт бoльшинства пoгoдных сайтoв мы публикуем пoдрoбную метеoинфoрмацию в детальнoм прoфессиoнальнoм фoрмате.

Характеристики температуры и влажнoсти вoздуха измеряются на высoте 2 м в тени вдали oт зданий и деревьев.
Скoрoсть ветра измеряется на высoте 10 м (на урoвне рoста челoвека скoрoсть ветра ниже в 1.5-2 раза). Если метеoстанция нахoдится в гoрoде или в лесу, тo скoрoсть ветра занижена на 2-4 м/с пo сравнению с oткрытым местoм. Скoрoсть ветра над акватoриями крупных рек и oзёр, а также на вершинах хoлмoв на 2-5 м/с выше, чем в oбычных услoвиях.
Атмoсфернoе давление в разных тoчках местнoсти мoжет значительнo oтличаться oт давления на метеoстанции, в зависимoсти oт услoвий рельефа (при пoдъёме на 10 м давление пoнижается примернo на 1 мм рт.ст.).